Theta_e
303 306 307 306 307 308 309 309 310 309 310 311 311 310 308 307 309 307 306 305 303 301 301 299 298 299 296 296 297 296 295 294 292 293 295 292 291 290 290 291 290 290 290
298 303 302 303 302 302 301 301 302 301 301 301 301 300 299 300 301 301 299 299 297 295 294 293 291 291 289 290 290 289 288 290 290 286 288 288 288 289 289 288 288 288 289
295 296 297 297 298 298 297 297 297 296 295 294 294 293 292 293 293 293 293 291 290 289 288 287 287 287 286 286 287 287 287 287 287 285 284 287 287 287 286 287 286 287 287
293 293 292 292 293 293 293 293 292 292 291 290 289 288 288 288 287 287 287 286 286 286 286 286 286 286 286 286 286 286 286 286 286 285 284 285 285 286 285 284 283 286 285
291 290 289 288 289 288 288 288 287 287 287 287 287 287 286 286 285 285 285 286 285 285 285 285 286 286 287 288 286 286 286 285 284 283 283 283 283 282 281 283 282 284 285
289 287 286 286 285 285 285 285 285 285 286 286 286 286 286 286 288 288 286 285 284 284 283 284 284 284 286 287 287 287 286 284 283 283 282 281 281 282 283 283 283 281 279
286 285 285 284 283 283 283 284 284 284 285 285 285 285 285 286 288 287 285 284 283 283 283 283 282 283 284 285 285 285 284 286 286 284 282 282 282 283 284 282 282 282 281
284 283 282 282 281 280 280 280 281 281 282 282 282 283 284 286 287 286 284 283 282 282 282 282 282 282 284 284 284 283 283 283 284 284 284 283 284 285 285 284 283 282 283
282 281 280 280 279 278 278 278 279 280 280 279 280 280 281 283 286 285 283 282 282 281 281 282 282 282 285 286 283 281 280 280 280 281 282 284 283 283 283 281 278 277 277
280 280 279 278 277 276 277 276 275 276 277 278 278 277 277 280 285 284 283 282 280 280 281 280 283 283 283 282 280 278 276 276 276 275 277 277 277 277 278 277 276 274 275
278 277 276 276 276 276 275 274 275 276 276 275 276 275 276 278 283 284 283 281 280 279 278 278 280 281 281 280 279 277 276 274 272 272 272 273 273 274 274 274 275 274 273
275 274 273 272 275 274 273 272 273 274 273 272 273 274 276 277 281 283 283 282 280 277 277 277 279 279 279 278 276 276 274 271 270 269 269 270 270 270 271 272 273 273 274
272 269 269 271 272 272 273 273 273 272 273 273 274 274 274 277 277 281 281 280 279 276 277 278 278 276 274 274 274 273 269 268 267 266 266 268 269 270 270 270 271 271 272
270 269 269 270 271 271 274 274 274 273 273 274 273 273 274 274 275 277 277 277 277 275 275 273 274 274 272 269 268 268 267 266 265 265 265 266 268 268 267 268 267 269 269
269 270 270 271 272 272 273 273 274 273 275 273 273 273 272 272 274 277 275 272 270 270 265 267 267 267 266 266 265 264 264 264 263 263 263 264 265 265 266 267 267 267 266
270 270 271 272 271 271 272 271 278 278 279 280 279 275 273 277 280 280 279 277 276 274 265 265 265 265 265 264 263 263 262 262 262 262 261 262 262 263 263 265 266 265 264
270 271 271 271 271 270 271 271 273 277 280 281 280 279 278 279 281 280 279 277 276 272 264 263 263 264 263 262 261 261 261 261 259 260 260 260 260 261 261 262 263 263 263
267 268 270 271 271 270 271 271 271 275 275 275 280 279 279 279 280 279 278 273 266 263 261 262 262 261 261 260 260 259 259 258 258 259 259 258 258 258 259 260 261 260 261
268 269 268 268 269 270 270 268 271 271 270 272 270 276 276 279 279 278 277 265 264 262 259 259 259 259 259 258 257 256 256 257 256 256 256 255 256 257 257 258 259 259 259
265 266 267 268 267 268 269 270 270 271 271 270 269 271 266 266 273 271 265 260 261 261 260 260 258 257 257 256 255 254 254 254 255 255 255 255 255 255 256 256 258 258 259
266 266 268 268 269 270 271 271 271 271 271 270 270 270 271 269 270 268 264 261 261 260 260 260 258 256 256 255 253 253 253 255 253 253 253 254 253 254 255 256 256 257 257
264 265 267 269 271 270 271 271 271 271 270 270 270 269 274 270 267 266 265 263 262 262 261 259 258 257 256 255 255 254 253 253 253 252 252 251 252 253 253 254 255 256 257
264 265 267 268 269 269 270 270 270 270 269 269 269 266 266 270 267 266 265 264 262 260 258 256 257 256 255 253 252 254 254 254 254 252 252 252 252 252 252 253 254 254 255
265 266 267 267 268 268 269 269 269 269 269 269 267 266 266 266 266 265 264 262 260 259 258 256 256 256 255 252 251 250 250 251 250 251 250 251 251 251 251 251 253 254 254
266 266 266 267 267 268 268 268 268 268 267 267 266 266 266 265 265 264 263 261 259 258 257 255 255 254 254 253 251 249 249 253 252 250 249 249 250 249 249 250 253 253 252
264 265 266 266 267 267 267 267 267 267 267 266 266 265 265 264 263 263 262 260 259 258 257 257 256 254 254 253 253 253 254 256 253 252 251 250 250 250 251 252 252 253 253
Wind_Speed
3 2 3 3 3 3 2 2 1 3 3 2 2 3 3 3 3 4 4 5 6 5 6 7 7 6 5 3 3 3 4 3 1 2 2 5 5 9 10 9 8 8 8
2 3 3 4 4 5 5 5 4 5 5 5 6 6 6 6 6 6 7 7 8 7 7 8 6 5 7 5 5 5 4 4 1 2 3 2 3 6 7 8 8 7 8
3 3 4 4 5 6 6 5 5 6 6 7 7 7 6 7 7 8 8 9 9 8 7 7 5 7 6 4 5 5 4 3 3 1 3 1 3 2 7 5 7 8 6
4 4 4 4 4 4 5 6 6 6 7 7 7 7 6 7 7 7 8 9 9 8 7 7 7 7 7 6 6 5 3 3 2 2 3 4 3 6 5 8 9 8 8
5 5 4 4 4 4 5 6 6 6 6 6 7 7 6 6 4 7 8 8 9 10 9 9 8 8 11 9 4 5 4 4 3 4 5 5 6 9 9 6 8 8 7
5 5 4 4 4 5 5 6 6 6 6 7 7 7 8 5 13 13 9 8 8 8 9 8 8 8 9 12 11 10 7 6 5 5 4 6 9 7 7 8 8 9 9
5 5 5 5 5 4 5 6 7 6 6 7 7 9 9 8 15 15 14 8 9 8 8 7 6 4 4 4 5 5 4 7 6 3 5 6 8 9 9 11 10 9 9
6 5 5 5 5 5 6 6 6 5 6 6 7 7 8 8 15 15 15 9 9 8 7 6 5 4 2 1 2 4 5 6 7 5 6 8 8 8 7 7 9 10 9
6 6 5 5 6 6 6 7 5 7 6 5 5 6 7 6 12 12 10 7 7 7 6 5 4 3 4 8 6 6 6 5 8 11 9 8 12 14 13 7 7 10 9
6 6 5 5 6 6 6 5 3 4 6 5 6 4 4 6 11 10 7 4 6 6 5 5 5 6 9 10 7 5 5 6 6 6 7 8 10 10 14 10 8 8 9
6 6 5 5 6 6 7 4 6 7 6 5 6 3 4 3 6 7 6 3 3 5 5 4 3 10 10 11 11 6 5 4 5 4 4 5 7 9 8 9 9 8 8
5 5 5 5 4 5 7 4 5 7 6 5 4 3 2 1 4 6 7 6 6 5 6 5 5 9 11 12 9 11 10 7 3 4 5 6 6 7 8 9 10 9 8
6 5 5 4 5 6 8 8 6 5 6 6 5 4 4 2 0 5 6 5 7 5 5 8 10 10 11 9 12 11 7 5 4 5 5 5 5 6 9 8 8 9 10
6 5 4 5 5 4 4 5 6 7 6 5 5 5 4 3 3 3 3 2 7 6 8 5 8 9 9 7 5 6 5 4 4 4 3 4 5 6 6 7 6 8 7
4 4 4 4 5 5 3 5 5 3 5 6 5 5 6 6 5 8 7 4 4 7 5 3 2 2 2 3 3 3 3 3 4 3 4 4 5 6 6 7 6 7 6
5 5 5 4 4 4 4 2 9 8 11 10 10 8 4 6 12 13 11 10 11 14 2 2 2 2 2 2 2 2 2 3 3 3 3 3 4 5 6 6 6 7 8
6 5 4 4 5 5 5 6 7 7 11 11 10 12 13 11 15 13 12 10 10 8 2 3 3 4 3 2 2 2 1 1 2 1 2 3 4 4 5 6 7 6 8
5 5 6 6 6 6 6 6 4 7 9 6 11 11 14 14 14 13 12 9 3 1 2 3 4 4 4 4 3 2 1 1 1 1 1 2 3 3 4 6 6 7 8
6 5 5 4 4 6 5 4 6 4 4 5 2 8 8 15 16 15 14 4 4 4 4 4 4 4 4 4 3 3 3 2 1 1 1 1 2 2 3 4 5 6 7
5 5 5 5 4 6 6 7 7 8 7 7 7 8 3 2 8 7 5 4 5 4 5 5 5 4 4 4 4 3 3 3 2 2 3 2 2 2 3 4 5 6 7
4 4 6 5 6 7 7 9 8 8 8 8 9 9 16 10 10 8 7 6 6 6 6 6 5 5 5 4 4 4 4 4 3 4 3 3 2 3 3 4 6 5 5
4 4 5 8 7 8 9 9 8 9 9 9 8 8 22 11 8 8 8 8 7 7 6 6 5 6 6 6 6 6 5 5 4 4 4 3 3 4 3 4 5 5 5
4 4 6 7 8 8 8 9 9 9 9 9 8 7 8 10 9 10 9 7 6 6 6 6 6 5 5 5 6 6 6 6 6 4 5 4 4 4 3 4 5 4 5
5 7 8 8 8 8 9 10 9 11 10 9 8 8 8 9 8 10 8 6 6 6 6 6 7 9 6 6 5 6 6 5 4 5 6 5 5 5 5 4 5 6 6
6 7 8 8 8 8 9 9 9 9 9 9 8 8 8 8 9 8 7 7 7 7 7 7 6 9 10 11 9 9 9 12 9 8 5 6 7 6 5 4 5 5 5
6 7 7 7 8 8 8 9 9 9 9 9 8 9 9 9 9 8 8 7 7 7 7 6 8 12 11 9 10 11 12 13 11 12 8 7 6 6 6 7 8 5 5
Wind_Direction
112 109 92 60 47 56 74 68 48 67 33 78 103 100 109 106 90 111 94 89 92 84 78 91 76 80 85 63 70 73 75 64 15 308 4 354 335 347 341 342 339 338 329
119 120 107 93 86 83 70 58 60 81 58 64 68 66 55 61 65 87 93 82 90 88 79 79 76 84 74 63 61 60 68 62 155 276 312 327 284 324 309 312 325 331 323
100 99 79 78 80 84 83 76 70 75 66 65 72 75 69 58 67 69 81 85 81 78 82 83 75 84 85 88 84 78 68 73 78 47 311 305 296 322 330 338 328 317 308
120 106 96 86 93 95 94 83 76 76 82 75 72 79 80 84 81 82 90 90 87 85 90 91 87 81 81 81 81 77 69 51 39 342 313 317 302 340 342 339 336 336 322
144 137 125 108 104 101 95 89 87 86 92 96 98 83 78 80 86 100 102 107 110 102 84 78 75 76 77 72 67 54 40 26 11 5 5 336 342 350 347 330 323 322 324
144 133 132 120 117 117 116 114 105 96 93 93 84 87 82 74 94 96 96 95 89 93 95 80 70 61 57 60 53 41 32 28 22 13 351 341 334 320 323 321 321 330 340
135 138 132 129 121 119 110 98 93 90 98 94 93 96 93 92 98 97 95 91 93 90 94 106 100 99 98 112 81 88 65 46 42 12 334 325 314 320 319 326 322 317 312
143 137 142 141 132 123 101 100 96 91 95 98 94 93 99 102 111 115 114 113 113 118 124 124 121 118 96 157 106 68 52 45 16 2 340 330 321 317 316 313 322 312 302
152 150 149 145 136 130 127 134 134 128 121 113 115 114 112 103 117 125 124 122 118 114 107 104 101 109 48 75 88 74 56 42 5 359 350 355 1 1 358 343 348 330 318
155 148 150 144 144 146 139 130 103 96 113 119 109 95 94 122 126 130 132 129 135 136 123 100 78 80 71 78 82 87 88 41 7 356 12 13 7 5 9 13 352 332 327
136 141 146 151 156 149 133 129 135 124 123 120 123 115 104 100 118 115 123 134 144 137 128 121 76 85 87 78 79 75 67 55 22 20 22 12 7 5 0 353 347 335 323
132 135 139 138 142 136 128 117 120 133 134 137 135 134 124 73 125 133 132 128 148 145 133 116 98 95 86 79 72 69 62 68 55 36 29 25 8 358 345 337 329 316 300
137 143 145 139 139 154 148 150 143 143 154 167 174 170 175 186 124 138 131 136 137 124 121 127 117 102 88 70 74 69 56 48 47 49 26 15 356 334 324 328 327 324 306
143 144 147 151 157 164 152 164 157 171 179 174 180 179 184 179 184 146 124 139 132 108 114 105 115 101 96 97 70 55 56 52 53 52 16 346 337 344 341 349 341 340 329
142 155 170 170 174 172 184 184 185 204 189 181 193 177 175 196 197 183 168 166 152 144 110 91 107 98 100 90 78 73 67 55 55 38 16 1 353 344 343 346 342 339 342
165 178 190 177 184 183 178 177 218 208 203 208 207 186 206 188 187 190 186 174 171 153 106 151 146 135 146 143 122 82 48 41 38 24 21 6 355 345 340 345 351 349 337
192 178 177 181 185 183 185 187 187 210 208 209 208 202 188 190 193 190 192 174 186 158 148 159 162 172 173 187 164 151 195 19 5 15 21 1 351 345 344 350 354 349 339
202 188 187 196 195 190 197 202 184 192 195 191 211 195 200 203 198 196 198 131 153 193 183 178 174 174 184 183 199 205 239 274 253 351 9 356 360 352 344 351 349 343 337
210 211 193 184 186 200 194 177 200 197 194 191 185 216 208 209 205 197 205 163 192 202 185 192 187 184 193 192 196 214 224 238 248 294 287 302 330 351 329 336 325 324 327
218 216 190 185 189 197 194 202 205 210 207 202 199 206 173 202 209 199 171 169 197 211 193 188 189 195 202 199 196 208 220 229 234 246 254 274 296 306 307 310 309 320 328
205 205 202 195 202 209 211 217 216 213 215 213 214 204 195 204 211 201 189 190 196 195 199 196 190 202 203 199 208 215 223 233 234 245 251 259 270 282 282 286 293 294 303
206 208 207 221 223 221 221 220 217 218 218 219 219 209 215 206 215 206 199 196 195 201 187 185 190 203 199 194 201 210 219 230 232 237 248 250 252 261 274 276 286 292 299
216 223 232 231 232 227 226 223 222 218 220 222 219 201 204 221 210 213 211 200 193 191 186 184 191 207 210 210 205 205 212 221 221 201 226 238 246 257 254 266 275 282 284
236 236 240 240 241 236 237 236 231 226 223 218 209 207 204 215 213 211 203 190 190 196 183 186 198 209 209 208 207 209 221 230 208 213 214 225 236 234 246 248 256 257 274
247 245 245 246 243 239 242 239 236 230 225 219 214 209 205 204 215 214 201 194 189 199 202 193 204 214 218 217 213 212 216 232 213 201 202 208 224 225 232 233 247 257 255
257 256 252 254 253 250 244 243 238 231 228 224 219 212 208 206 209 207 205 198 199 204 203 199 211 211 213 223 224 221 220 220 217 213 202 201 211 222 221 232 238 239 248